Location: Fours
(44.3167°N, 6.7000°E)
Time: 05:09:57
(UTC+00:00)

Cosmos 1535 Rocket - Pass Details

Date: 30 November 2020
Orbit: 949 x 1003 km, 83.0° (Epoch: 24 January)

Event Time Altitude Azimuth Distance (km) Brightness Sun altitude
Rises 18:11:49 0° 355° (N) 3,635 7.5 -23.7°
Reaches altitude 10° 18:14:23 10° 359° (N) 2,684 6.7 -24.2°
Enters shadow 18:19:46 55° 53° (NE) 1,131 4.5 -25.1°
Exits shadow 18:28:41 - 161° (SSE) 3,519 7.3 -26.7°
Sets 18:28:56 0° 162° (SSE) 3,618 7.4 -26.8°
